Miscellaneous Local Product
Issued by NWS North Platte, NE

Home | Current Version | Previous Version | Graphics & Text | Print | Product List | Glossary On
Versions: 1 2 3 4 5 6 7 8 9 10 11 12 13 14 15 16 17 18 19 20 21 22 23 24 25 26 27 28 29 30 31 32 33 34 35 36 37 38 39 40 41 42 43 44 45 46 47 48 49 50
000
AXUS43 KLBF 232210
MISLBF


WESTERN AND NORTH CENTRAL NEBRASKA HOURLY WEATHER ROUNDUP
NATIONAL WEATHER SERVICE NORTH PLATTE NE
500 PM CDT TUE MAY 23 2017

NOTE: "FAIR" INDICATES FEW OR NO CLOUDS BELOW 12,000 FEET WITH NO
SIGNIFICANT WEATHER AND/OR OBSTRUCTIONS TO VISIBILITY.

NOTE: STATIONS NOT REPORTING VARIABLES SUCH AS SKY/WEATHER OR
PRESSURE ARE PROVIDED BY RAWS AND APRS NETWORKS AND ARE NOT UNDER
NATIONAL WEATHER SERVICE QUALITY CONTROL.

...OBSERVATIONS IN AND NEAR THE EASTERN PANHANDLE OF NEBRASKA...

CITY           SKY/WX    TMP DP  RH WIND       PRES   REMARKS
PINE RIDGE     PTSUNNY   60  37  42 NE21      30.06F
GORDON         CLOUDY    59  36  43 N22       30.05F
CHADRON        MOSUNNY   61  38  42 N16G22    30.06F
ALLIANCE       PTSUNNY   59  35  40 N20       30.05F
SIDNEY         PTSUNNY   58  37  45 N17G29    30.07F
CRESCENT LAKE    N/A     59  33  37 N17G32      N/A
$$

...OBSERVATIONS IN NORTHERN NEBRASKA AND FAR SOUTHERN SOUTH DAKOTA...

CITY           SKY/WX    TMP DP  RH WIND       PRES   REMARKS
WINNER         CLOUDY    57  42  57 N22G28    29.98F
VALENTINE      CLOUDY    57  37  47 N17G28    30.00S
THEDFORD       CLOUDY    56  37  48 N15G32    30.01S
AINSWORTH      CLOUDY    54  42  65 N17G25    29.98F
O`NEILL        CLOUDY    52  41  66 NW20      29.95F
ORD            PTSUNNY   54  39  57 N28G35    29.94S
BROKEN BOW     CLOUDY    56  39  53 N25G37    29.96F
HALSEY           N/A     55  35  47 NW14G28     N/A
BUTTE            N/A     52  44  74 N16G26      N/A
CHAMBERS         N/A     55  40  58 W10         N/A
EWING            N/A     52  45  77 N14G21      N/A
$$

...OBSERVATIONS IN SOUTHWEST NEBRASKA AND FAR NORTHEAST COLORADO...

CITY           SKY/WX    TMP DP  RH WIND       PRES   REMARKS
WRAY           LGT RAIN  59  36  41 NW18G24   30.05F
IMPERIAL       CLOUDY    60  33  36 N17G32    30.02F
OGALLALA       MOSUNNY   63  33  32 N16G28    30.03F
NORTH PLATTE   CLOUDY    57  37  47 N20G29    30.00F
MCCOOK         CLOUDY    61  35  37 N35G43    29.99S
LEXINGTON      CLOUDY    55  40  56 N22G32    29.98F
STAPLETON        N/A     56  37  49 N6          N/A
GOTHENBURG       N/A     55  33  44 NW16        N/A
CALLAWAY         N/A     52  40  63 N20         N/A
$$

...OBSERVATIONS IN CENTRAL LINCOLN COUNTY AREA...

CITY           SKY/WX    TMP DP  RH WIND       PRES   REMARKS
N.P. AIRPORT   CLOUDY    57  37  47 N20G29    30.00F
N.P. DOWNTOWN    N/A     56  38  50 NW12        N/A
N.P. SOUTHEAST   N/A     57  37  48 N12G21      N/A
N.P. HILLCREST   N/A     56  37  49 N21G32      N/A
$$

...SOME OBSERVATIONS FROM AROUND THE REGION...

CITY           SKY/WX    TMP DP  RH WIND       PRES   REMARKS
DENVER         PTSUNNY   62  33  33 N16G28    30.12F
LIMON          MOSUNNY   60  32  34 N26G38    30.11F
ASPEN          MOSUNNY   57  25  29 N13G21    30.23S
LARAMIE        CLOUDY    53  28  38 NW20G30   30.17F
CASPER         CLOUDY    62  37  39 N8        30.13F
CHEYENNE       PTSUNNY   54  30  40 N16G29    30.14F
SCOTTSBLUFF    PTSUNNY   66  33  29 N18G35    30.06F
GRAND ISLAND   CLOUDY    55  41  59 N21       29.93F
OMAHA          PTSUNNY   57  44  62 NW14G25   29.83F
SIOUX FALLS    CLOUDY    57  47  69 N17G28    29.84F
PIERRE         LGT RAIN  54  39  57 N20       30.00F
RAPID CITY     MOSUNNY   64  34  32 N22G29    30.05F
BISMARCK       PTSUNNY   65  34  31 N22       30.02F
KANSAS CITY    CLOUDY    65  48  54 NW7       29.80F
HILL CITY      PTSUNNY   64  35  34 N25G35    29.97S
WICHITA        CLOUDY    64  46  52 N13       29.88S
DODGE CITY     LGT RAIN  57  43  59 N12       29.98S
OKLAHOMA CITY  CLOUDY    68  44  42 N13       29.89F
DALLAS         LGT RAIN  69  57  65 NW20G29   29.86F
AMARILLO       CLOUDY    64  35  34 N17       30.05F
$$




USA.gov is the U.S. government's official web portal to all federal, state and local government web resources and services.